When you browse on this site, cookies collect data to enhance your experience and personalize the content and advertising you see.
Visit our Privacy Policy to learn more. By continuing to use the site, you agree to this use of cookies and data.
  • în România
  • Lista ţărilor
  • Pe 7 zile
  • Temperatura apei
  • Meteo pe hartă
  • Widget-uri
  • user-avatar
    Intrare

    Meteo pe oră la Cuiaba

    Astăzi, 21 Noiembrie, Joi

    Timp Temperatura Precipitaţii Vânt Presiune Umiditate
    00:00 +26°C° 0.2 mm 1 m/s 738 mmHg 78%
    01:00 +25°C° 0.2 mm 1 m/s 738 mmHg 83%
    02:00 +25°C° 0.2 mm 2 m/s 738 mmHg 88%
    03:00 +25°C° 0 mm 2 m/s 738 mmHg 89%
    04:00 +25°C° 0 mm 2 m/s 738 mmHg 89%
    05:00 +25°C° 0 mm 2 m/s 739 mmHg 90%
    06:00 +27°C° 0 mm 2 m/s 739 mmHg 82%
    07:00 +28°C° 0 mm 2 m/s 740 mmHg 74%
    08:00 +30°C° 0 mm 2 m/s 740 mmHg 66%
    09:00 +34°C° 0 mm 2 m/s 740 mmHg 57%
    10:00 +36°C° 0 mm 1 m/s 740 mmHg 49%
    11:00 +39°C° 0 mm 1 m/s 739 mmHg 40%
    12:00 +39°C° 0 mm 1 m/s 739 mmHg 39%
    13:00 +39°C° 0 mm 1 m/s 738 mmHg 37%
    14:00 +39°C° 0 mm 1 m/s 737 mmHg 36%
    15:00 +37°C° 0 mm 1 m/s 736 mmHg 39%
    16:00 +36°C° 0 mm 1 m/s 736 mmHg 43%
    17:00 +35°C° 0 mm 1 m/s 736 mmHg 46%
    18:00 +33°C° 0.6 mm 1 m/s 736 mmHg 55%
    19:00 +30°C° 0.6 mm 1 m/s 736 mmHg 64%
    20:00 +28°C° 0.6 mm 1 m/s 736 mmHg 73%
    21:00 +27°C° 0.2 mm 1 m/s 737 mmHg 76%
    22:00 +27°C° 0.2 mm 1 m/s 737 mmHg 79%
    23:00 +26°C° 0.2 mm 1 m/s 737 mmHg 82%

    Mâine, 22 Noiembrie, Vineri

    Timp Temperatura Precipitaţii Vânt Presiune Umiditate
    00:00 +26°C° 0 mm 1 m/s 737 mmHg 83%
    01:00 +26°C° 0 mm 1 m/s 736 mmHg 85%
    02:00 +25°C° 0 mm 2 m/s 736 mmHg 87%
    03:00 +25°C° 0 mm 1 m/s 736 mmHg 87%
    04:00 +25°C° 0 mm 1 m/s 736 mmHg 87%
    05:00 +25°C° 0 mm 1 m/s 737 mmHg 87%
    06:00 +27°C° 0 mm 1 m/s 737 mmHg 78%
    07:00 +30°C° 0 mm 1 m/s 738 mmHg 69%
    08:00 +32°C° 0 mm 1 m/s 739 mmHg 59%
    09:00 +34°C° 0 mm 1 m/s 738 mmHg 52%
    10:00 +36°C° 0 mm 1 m/s 738 mmHg 45%
    11:00 +40°C° 0 mm 1 m/s 738 mmHg 37%
    12:00 +39°C° 0 mm 2 m/s 737 mmHg 39%
    13:00 +38°C° 0 mm 3 m/s 737 mmHg 40%
    14:00 +37°C° 0 mm 3 m/s 736 mmHg 42%
    15:00 +36°C° 0.2 mm 3 m/s 736 mmHg 47%
    16:00 +34°C° 0.2 mm 2 m/s 735 mmHg 52%
    17:00 +32°C° 0.2 mm 2 m/s 735 mmHg 57%
    18:00 +31°C° 0.2 mm 2 m/s 735 mmHg 61%
    19:00 +30°C° 0.2 mm 1 m/s 736 mmHg 65%
    20:00 +29°C° 0.2 mm 1 m/s 736 mmHg 69%
    21:00 +28°C° 0.3 mm 1 m/s 736 mmHg 73%
    22:00 +27°C° 0.3 mm 1 m/s 737 mmHg 77%
    23:00 +24°C° 0.3 mm 0 m/s 737 mmHg 81%

    Poimâine, 23 Noiembrie, Sâmbătă

    Timp Temperatura Precipitaţii Vânt Presiune Umiditate
    00:00 +26°C° 0.3 mm 1 m/s 737 mmHg 83%
    01:00 +26°C° 0.3 mm 1 m/s 737 mmHg 85%
    02:00 +25°C° 0.3 mm 1 m/s 737 mmHg 87%
    03:00 +25°C° 0.6 mm 1 m/s 737 mmHg 88%
    04:00 +25°C° 0.6 mm 1 m/s 737 mmHg 90%
    05:00 +24°C° 0.6 mm 1 m/s 738 mmHg 91%
    06:00 +26°C° 0.2 mm 1 m/s 738 mmHg 85%
    07:00 +28°C° 0.2 mm 2 m/s 739 mmHg 78%
    08:00 +30°C° 0.2 mm 2 m/s 739 mmHg 72%
    09:00 +32°C° 0 mm 2 m/s 739 mmHg 62%
    10:00 +36°C° 0 mm 2 m/s 739 mmHg 52%
    11:00 +38°C° 0 mm 2 m/s 739 mmHg 42%
    12:00 +38°C° 0 mm 2 m/s 738 mmHg 41%
    13:00 +37°C° 0 mm 1 m/s 737 mmHg 40%
    14:00 +37°C° 0 mm 1 m/s 737 mmHg 40%
    15:00 +37°C° 0 mm 2 m/s 736 mmHg 43%
    16:00 +36°C° 0 mm 2 m/s 736 mmHg 46%
    17:00 +36°C° 0 mm 3 m/s 735 mmHg 49%
    18:00 +32°C° 0.1 mm 2 m/s 736 mmHg 59%
    19:00 +29°C° 0.1 mm 1 m/s 736 mmHg 69%
    20:00 +27°C° 0.1 mm 1 m/s 737 mmHg 79%
    21:00 +27°C° 0.2 mm 1 m/s 737 mmHg 81%
    22:00 +26°C° 0.2 mm 1 m/s 737 mmHg 82%
    23:00 +26°C° 0.2 mm 2 m/s 738 mmHg 84%

    24 Noiembrie, Duminică

    Timp Temperatura Precipitaţii Vânt Presiune Umiditate
    00:00 +26°C° 0.3 mm 2 m/s 737 mmHg 86%
    01:00 +25°C° 0.3 mm 1 m/s 737 mmHg 88%
    02:00 +25°C° 0.3 mm 1 m/s 737 mmHg 90%
    03:00 +25°C° 0 mm 1 m/s 737 mmHg 90%
    04:00 +24°C° 0 mm 1 m/s 737 mmHg 90%
    05:00 +24°C° 0 mm 1 m/s 737 mmHg 90%
    06:00 +26°C° 0 mm 2 m/s 738 mmHg 82%
    07:00 +28°C° 0 mm 3 m/s 738 mmHg 74%
    08:00 +29°C° 0 mm 3 m/s 739 mmHg 66%
    09:00 +31°C° 0 mm 3 m/s 739 mmHg 60%
    10:00 +35°C° 0 mm 3 m/s 738 mmHg 53%
    11:00 +37°C° 0 mm 4 m/s 738 mmHg 46%
    12:00 +37°C° 0 mm 3 m/s 737 mmHg 43%
    13:00 +38°C° 0 mm 3 m/s 736 mmHg 40%
    14:00 +39°C° 0 mm 3 m/s 735 mmHg 37%
    15:00 +38°C° 0 mm 3 m/s 735 mmHg 40%
    16:00 +37°C° 0 mm 2 m/s 735 mmHg 43%
    17:00 +36°C° 0 mm 2 m/s 734 mmHg 47%
    18:00 +34°C° 0 mm 2 m/s 735 mmHg 52%
    19:00 +31°C° 0 mm 2 m/s 735 mmHg 58%
    20:00 +30°C° 0 mm 2 m/s 736 mmHg 64%
    21:00 +29°C° 0 mm 2 m/s 736 mmHg 67%
    22:00 +28°C° 0 mm 2 m/s 736 mmHg 70%
    23:00 +28°C° 0 mm 2 m/s 736 mmHg 73%

    25 Noiembrie, Luni

    Timp Temperatura Precipitaţii Vânt Presiune Umiditate
    00:00 +27°C° 0.1 mm 2 m/s 736 mmHg 75%
    01:00 +27°C° 0.1 mm 2 m/s 735 mmHg 78%
    02:00 +26°C° 0.1 mm 2 m/s 735 mmHg 80%
    03:00 +26°C° 0 mm 2 m/s 735 mmHg 81%
    04:00 +26°C° 0 mm 2 m/s 735 mmHg 81%
    05:00 +26°C° 0 mm 2 m/s 736 mmHg 82%
    06:00 +28°C° 0.2 mm 3 m/s 736 mmHg 76%
    07:00 +30°C° 0.2 mm 3 m/s 737 mmHg 70%
    08:00 +32°C° 0.2 mm 4 m/s 737 mmHg 64%
    09:00 +34°C° 0 mm 4 m/s 737 mmHg 56%
    10:00 +36°C° 0 mm 4 m/s 737 mmHg 48%
    11:00 +39°C° 0 mm 5 m/s 737 mmHg 40%
    12:00 +40°C° 0 mm 5 m/s 736 mmHg 39%
    13:00 +40°C° 0 mm 4 m/s 735 mmHg 38%
    14:00 +40°C° 0 mm 4 m/s 734 mmHg 37%
    15:00 +40°C° 0 mm 4 m/s 734 mmHg 39%
    16:00 +38°C° 0 mm 3 m/s 734 mmHg 42%
    17:00 +37°C° 0 mm 3 m/s 733 mmHg 45%
    18:00 +35°C° 0 mm 2 m/s 734 mmHg 50%
    19:00 +32°C° 0 mm 2 m/s 734 mmHg 56%
    20:00 +31°C° 0 mm 2 m/s 734 mmHg 61%
    21:00 +30°C° 0.1 mm 2 m/s 734 mmHg 63%
    22:00 +30°C° 0.1 mm 2 m/s 735 mmHg 65%
    23:00 +29°C° 0.1 mm 2 m/s 735 mmHg 67%

    26 Noiembrie, Marţi

    Timp Temperatura Precipitaţii Vânt Presiune Umiditate
    00:00 +28°C° 0.1 mm 2 m/s 734 mmHg 71%
    01:00 +28°C° 0.1 mm 1 m/s 734 mmHg 74%
    02:00 +27°C° 0.1 mm 1 m/s 734 mmHg 78%
    03:00 +27°C° 0.3 mm 2 m/s 734 mmHg 79%
    04:00 +27°C° 0.3 mm 2 m/s 735 mmHg 81%
    05:00 +26°C° 0.3 mm 2 m/s 735 mmHg 83%
    06:00 +28°C° 0.1 mm 2 m/s 736 mmHg 76%
    07:00 +30°C° 0.1 mm 3 m/s 737 mmHg 69%
    08:00 +33°C° 0.1 mm 3 m/s 738 mmHg 62%
    09:00 +35°C° 0 mm 4 m/s 737 mmHg 55%
    10:00 +37°C° 0 mm 4 m/s 737 mmHg 47%
    11:00 +40°C° 0 mm 4 m/s 737 mmHg 39%
    12:00 +40°C° 0 mm 4 m/s 736 mmHg 38%
    13:00 +41°C° 0 mm 4 m/s 735 mmHg 36%
    14:00 +41°C° 0 mm 4 m/s 734 mmHg 35%
    15:00 +40°C° 0 mm 4 m/s 734 mmHg 38%
    16:00 +38°C° 0 mm 4 m/s 733 mmHg 40%
    17:00 +37°C° 0 mm 4 m/s 733 mmHg 43%
    18:00 +35°C° 0.1 mm 3 m/s 733 mmHg 50%
    19:00 +33°C° 0.1 mm 3 m/s 734 mmHg 56%
    20:00 +29°C° 0.1 mm 2 m/s 734 mmHg 63%
    21:00 +29°C° 0 mm 2 m/s 734 mmHg 65%
    22:00 +29°C° 0 mm 2 m/s 735 mmHg 67%
    23:00 +28°C° 0 mm 2 m/s 735 mmHg 69%
    Arată mai mult